ARIANE 2 DEB

基本信息
目录编号:
42489
目录名称:
ARIANE 2 DEB
国际标识:
1989-006CR
轨道中心:
EARTH
物体状态:
在轨
发射日期:
1989-01-27 UTC
轨道信息
数据来源: 国际轨道数据
星历时间: 2024-08-16T03:04:12+0800
半长轴: 24974.221km
偏心率: 0.6820659
轨道倾角: 9.801°
近地点辐角: 144.548°
升交点赤经: 51.386°
平近点角: 85.090°
近地点: 1562.021km
远地点: 35630.151km
周期: 654.633分钟
每日圈数: 2.199707
详细信息
发射场:
FRGUI
轨道高度:
LEO
数据来源:
AOE Integration Group
参考系:
TEME
时间系统:
UTC
历元类型:
SGP4
2D轨道图
3D轨道图
轨道高度分析图
轨道倾角分析图
轨道综合分析图
查看轨道综合分析图